[[{"header":{"parameterUnit":"m.s-1","parameterCategory":1,"la1":30.2991,"la2":30.254,"lo1":-89.0895,"lo2":-89.0444,"dy":0.0017,"dx":0.0017,"nx":28,"ny":28,"refTime":"2024-07-03T03:00:00:Z","depth":0,"parameterNumber":2,"parameterNumberName":"U-component_of_WINDS"},"data":[0,0,0,0,0,0,0,0,0,0,0,0,0,0,0,0,0,0,0,0,0,0,0,0,0,0,0,0,0,0,0,0,0,0,0,0,0,0,0,0,0,0,0,0,0,0,0,0,0,0,0,0,0,0,0,0,0,0,2.1038,2.1039,0,2.1137,2.1138,2.1139,2.1166,2.1166,2.1165,2.1164,2.1269,2.1272,2.1275,0,0,0,0,0,0,0,0,0,0,0,0,0,2.0873,2.0875,2.1037,2.1039,2.104,2.1137,2.1138,2.114,2.1166,2.1166,2.1165,2.1164,2.1268,2.1272,2.1276,0,0,0,0,0,0,0,0,0,0,0,0,0,2.0955,2.0876,2.1037,2.1065,2.1068,2.1137,2.1138,2.114,2.1167,2.1166,2.1165,2.1164,2.1266,2.1271,2.1276,2.1325,0,0,2.1291,2.1294,0,0,0,0,0,0,0,0,2.0951,2.0961,2.106,2.1063,2.1067,2.1138,2.1118,2.1202,2.1167,2.1129,2.1164,2.1163,2.1226,2.1234,2.1255,2.133,2.1334,2.1292,2.1295,2.1297,2.1298,0,0,0,0,0,0,0,2.0945,2.0957,2.1077,2.1061,2.1066,2.1073,2.1084,2.1134,2.1182,2.1133,2.1135,2.1146,2.1228,2.125,2.1258,2.1336,2.1292,2.1296,2.1299,2.1301,2.1456,2.1457,0,0,0,0,0,0,2.0934,2.0952,2.1074,2.108,2.1005,2.1077,2.1089,2.1116,2.1181,2.119,2.1147,2.1147,2.1242,2.1252,2.1262,2.1323,2.1297,2.1302,2.1304,2.1454,2.1456,2.1457,0,0,0,0,0,0,2.093,2.0945,2.107,2.1017,2.1033,2.1081,2.1111,2.1119,2.1141,2.1192,2.1201,2.116,2.1242,2.1255,2.1309,2.1327,2.1304,2.1308,2.1453,2.1455,2.1456,2.1446,0,0,0,0,0,0,2.0926,2.0943,2.0962,2.1017,2.1036,2.1115,2.1112,2.1121,2.1149,2.1151,2.1207,2.1216,2.1242,2.1301,2.1314,2.1333,2.1312,2.1452,2.1454,2.1456,2.1445,2.1447,2.1449,0,0,0,0,0,2.092,2.0955,2.0962,2.0977,2.106,2.1116,2.1127,2.1156,2.1151,2.117,2.1203,2.1214,2.1323,2.1306,2.1321,2.1342,2.1451,2.1453,2.1456,2.1444,2.1447,2.1449,0,0,0,0,0,0,2.0901,2.0963,2.0972,2.1026,2.1065,2.112,2.1145,2.1158,2.12,2.1199,2.1234,2.1247,2.1299,2.1326,2.1307,2.1393,2.1387,2.1393,2.1373,2.1376,2.1378,2.1371,2.1316,0,0,0,0,0,2.0903,2.0943,2.0995,2.1038,2.1057,2.1098,2.1123,2.1142,2.1184,2.1201,2.1238,2.1279,2.1323,2.1351,2.1394,2.1449,2.1462,2.1471,2.1473,2.1474,2.1479,2.151,2.1515,2.1465,2.1465,2.1465,0,0,2.0908,2.0947,2.097,2.1035,2.1068,2.1108,2.1111,2.1154,2.1185,2.1208,2.1261,2.129,2.1338,2.1393,2.1419,2.1418,2.1495,2.1477,2.1478,2.1482,2.1513,2.1518,2.1522,2.1467,2.1467,2.1466,0,0,2.0939,2.0971,2.1011,2.1044,2.1093,2.112,2.1129,2.1182,2.1202,2.1255,2.1274,2.1311,2.1386,2.1419,2.1446,2.1489,2.1501,2.1503,2.1513,2.1543,2.1547,2.1551,2.1566,2.1571,2.1507,2.1507,2.1507,0,2.0939,2.1,2.103,2.1072,2.11,2.1122,2.1163,2.1194,2.1255,2.1274,2.1271,2.1365,2.1399,2.1462,2.1473,2.1494,2.1506,2.1496,2.1544,2.1548,2.1552,2.1567,2.1573,2.1507,2.1507,2.1507,2.1507,0,2.0998,2.1041,2.1067,2.1124,2.1156,2.1197,2.1233,2.1262,2.1278,2.1305,2.136,2.1402,2.1454,2.147,2.1487,2.1536,2.1533,2.1537,2.1532,2.1556,2.1571,2.1577,2.1506,2.1506,2.1506,2.1506,0,0,2.1019,2.1093,2.1102,2.1129,2.1185,2.1218,2.1261,2.1311,2.1334,2.1376,2.1413,2.1475,2.1479,2.1509,2.153,2.1556,2.1588,2.1557,2.1558,2.1561,2.1645,2.1642,2.1648,2.1596,2.1597,2.1598,2.1641,0,2.1057,2.1132,2.116,2.1223,2.1263,2.1284,2.1321,2.136,2.1387,2.1425,2.1455,2.1498,2.15,2.1518,2.1545,2.1578,2.1605,2.1576,2.1631,2.1633,2.1618,2.1656,2.1653,2.169,2.1647,2.1648,2.1648,0,2.111,2.1151,2.1217,2.1269,2.1287,2.1319,2.1367,2.1403,2.1448,2.1466,2.15,2.1519,2.1565,2.1556,2.162,2.16,2.1624,2.1644,2.1646,2.1652,2.1642,2.1663,2.1703,2.1709,2.1658,2.1657,2.1656,0,2.1119,2.1191,2.124,2.1262,2.1323,2.1346,2.1372,2.1416,2.1444,2.1487,2.1506,2.1553,2.1579,2.1616,2.1647,2.1638,2.1709,2.1703,2.1725,2.1724,2.1739,2.1737,2.1783,2.1754,2.1754,2.1754,2.1754,0,2.1157,2.1197,2.1245,2.1275,2.132,2.1353,2.1397,2.1425,2.1464,2.15,2.1522,2.1556,2.1595,2.1635,2.166,2.1709,2.1721,2.1737,2.1743,2.1735,2.1733,2.1751,2.1749,2.1756,2.1755,2.1755,2.1755,0,2.1175,2.1208,2.1263,2.1317,2.1331,2.1362,2.1408,2.1438,2.1466,2.1512,2.1524,2.1568,2.1615,2.165,2.1712,2.1729,2.1781,2.1788,2.1766,2.1769,2.1789,2.1786,2.1848,2.1858,2.1823,2.1823,2.1823,0,2.1197,2.1228,2.1284,2.131,2.1336,2.1378,2.1407,2.144,2.1469,2.1522,2.1546,2.1595,2.1636,2.171,2.1748,2.1795,2.1803,2.1821,2.181,2.1801,2.1803,2.1801,2.1804,2.1823,2.1823,2.1823,2.1823,0,2.1233,2.1248,2.1289,2.1335,2.1369,2.1407,2.1446,2.1466,2.1506,2.1538,2.1587,2.1618,2.168,2.1728,2.1779,2.1808,2.1822,2.1826,2.1834,2.1826,2.1812,2.182,2.177,2.1825,2.1825,2.1825,2.1824,2.1824,2.1254,2.1282,2.1327,2.1371,2.1404,2.1439,2.1471,2.1502,2.1542,2.1595,2.1613,2.1663,2.1707,2.1777,2.1805,2.1845,2.1845,2.1856,2.1859,2.1861,2.186,2.1805,2.1855,2.1855,2.1855,2.1855,2.1855,0,2.1291,2.132,2.1361,2.1414,2.145,2.146,2.1503,2.1532,2.1575,2.1615,2.1655,2.171,2.1757,2.1798,2.1847,2.1871,2.1879,2.1883,2.1881,2.1887,2.1858,2.1846,2.1875,2.1875,2.1875,2.1875,2.1875,2.1875,2.1314,2.1363,2.1384,2.1449,2.1479,2.1527,2.1551,2.1584,2.1616,2.1677,2.1716,2.1742,2.1783,2.1835,2.1878,2.1889,2.1906,2.1908,2.1921,2.1892,2.189,2.1887,2.1877,2.1912,2.1912,2.1947,2.1947,2.1948]},{"header":{"parameterUnit":"m.s-1","parameterCategory":1,"la1":30.2991,"la2":30.254,"lo1":-89.0895,"lo2":-89.0444,"dy":0.0017,"dx":0.0017,"nx":28,"ny":28,"refTime":"2024-07-03T03:00:00:Z","depth":0,"parameterNumber":3,"parameterNumberName":"V-component_of_WINDS"},"data":[0,0,0,0,0,0,0,0,0,0,0,0,0,0,0,0,0,0,0,0,0,0,0,0,0,0,0,0,0,0,0,0,0,0,0,0,0,0,0,0,0,0,0,0,0,0,0,0,0,0,0,0,0,0,0,0,0,0,2.6728,2.6728,0,2.6692,2.6692,2.6691,2.6704,2.6705,2.6706,2.6707,2.6665,2.6663,2.6661,0,0,0,0,0,0,0,0,0,0,0,0,0,2.6802,2.6801,2.6728,2.6728,2.6727,2.6692,2.6692,2.6691,2.6704,2.6705,2.6706,2.6707,2.6666,2.6663,2.6661,0,0,0,0,0,0,0,0,0,0,0,0,0,2.6768,2.68,2.6728,2.673,2.6729,2.6692,2.6692,2.6691,2.6704,2.6705,2.6707,2.6708,2.6666,2.6663,2.6661,2.6618,0,0,2.6652,2.6651,0,0,0,0,0,0,0,0,2.677,2.6766,2.673,2.673,2.6729,2.6704,2.6702,2.6666,2.6704,2.6714,2.6707,2.6708,2.6677,2.6673,2.6663,2.6616,2.6615,2.6652,2.665,2.6649,2.6648,0,0,0,0,0,0,0,2.6772,2.6767,2.6714,2.6729,2.6729,2.673,2.6727,2.6696,2.6688,2.6713,2.6714,2.6709,2.6677,2.6666,2.6662,2.6614,2.6652,2.6649,2.6648,2.6646,2.6526,2.6525,0,0,0,0,0,0,2.6776,2.6769,2.6715,2.6713,2.6753,2.6728,2.6724,2.6711,2.6689,2.6687,2.6708,2.671,2.667,2.6666,2.6661,2.6607,2.6649,2.6646,2.6645,2.6528,2.6526,2.6525,0,0,0,0,0,0,2.6777,2.6771,2.6716,2.6741,2.6734,2.6725,2.671,2.6709,2.6699,2.6686,2.6684,2.6699,2.6671,2.6665,2.6628,2.6606,2.6645,2.6642,2.653,2.6527,2.6525,2.6501,0,0,0,0,0,0,2.6779,2.6771,2.6757,2.6741,2.6733,2.6686,2.6709,2.6708,2.6695,2.6697,2.6677,2.6674,2.6672,2.6633,2.6626,2.6603,2.664,2.6532,2.6529,2.6526,2.6504,2.6499,2.6494,0,0,0,0,0,2.6782,2.6751,2.6756,2.6749,2.6715,2.6685,2.668,2.6679,2.6693,2.6677,2.6668,2.6675,2.661,2.6629,2.6621,2.6597,2.6533,2.653,2.6526,2.6506,2.65,2.6494,0,0,0,0,0,0,2.6763,2.6749,2.6754,2.6718,2.6703,2.6687,2.6667,2.6673,2.6652,2.6654,2.6652,2.6648,2.6609,2.66,2.6621,2.6553,2.6573,2.6568,2.6561,2.6554,2.6549,2.6551,2.6638,0,0,0,0,0,2.6755,2.6734,2.6722,2.6691,2.6683,2.6676,2.6663,2.6664,2.6647,2.664,2.6629,2.6611,2.6586,2.657,2.6547,2.6503,2.6497,2.6483,2.6478,2.6474,2.6468,2.6441,2.6434,2.6514,2.6514,2.6514,0,0,2.6738,2.6727,2.6714,2.6687,2.6675,2.6651,2.6671,2.6645,2.6626,2.6636,2.66,2.6591,2.6571,2.653,2.6511,2.6521,2.6445,2.6469,2.6466,2.6463,2.6437,2.6429,2.6423,2.6511,2.6512,2.6512,0,0,2.6693,2.6685,2.6656,2.6644,2.6626,2.6622,2.6615,2.6599,2.6593,2.6558,2.6564,2.654,2.6499,2.6483,2.647,2.6417,2.6422,2.641,2.6382,2.6356,2.6349,2.6344,2.6322,2.6315,2.6405,2.6405,2.6405,0,2.6673,2.6639,2.6641,2.6614,2.66,2.6609,2.6579,2.6566,2.6541,2.653,2.6542,2.6488,2.6476,2.6429,2.6416,2.6406,2.6396,2.6411,2.6351,2.6345,2.634,2.6319,2.6311,2.6403,2.6404,2.6404,2.6404,0,2.6614,2.6589,2.6568,2.6545,2.6529,2.6501,2.6495,2.6479,2.648,2.6473,2.6435,2.642,2.6393,2.6382,2.6383,2.6335,2.6341,2.6352,2.6372,2.633,2.6311,2.6303,2.6401,2.6402,2.6402,2.6403,0,0,2.6556,2.6533,2.6525,2.6514,2.6494,2.6474,2.6445,2.6419,2.6404,2.6386,2.6359,2.6322,2.6331,2.6316,2.6315,2.6292,2.6248,2.6305,2.6304,2.6293,2.619,2.618,2.6171,2.6251,2.625,2.6249,2.6191,0,2.6508,2.6458,2.6458,2.6411,2.6387,2.6394,2.6368,2.6352,2.6344,2.6321,2.6312,2.6285,2.6301,2.6291,2.6269,2.6258,2.6226,2.6262,2.6223,2.6222,2.6226,2.6162,2.6152,2.6098,2.6183,2.6182,2.6181,0,2.6445,2.6426,2.6377,2.6359,2.6348,2.6325,2.63,2.6279,2.6259,2.6255,2.6237,2.6239,2.6206,2.6228,2.6181,2.6205,2.6189,2.618,2.6178,2.6173,2.6197,2.6152,2.6081,2.6072,2.6169,2.617,2.6171,0,2.6405,2.6367,2.6332,2.6322,2.63,2.6283,2.6273,2.6255,2.6239,2.6216,2.6205,2.6179,2.6164,2.6142,2.6135,2.6152,2.6086,2.6109,2.6079,2.6079,2.6064,2.6064,2.5987,2.6057,2.6057,2.6058,2.6058,0,2.635,2.6319,2.6313,2.6291,2.6255,2.6254,2.6218,2.6209,2.6193,2.6167,2.6172,2.6147,2.6141,2.6114,2.6109,2.6068,2.6062,2.6056,2.6054,2.6054,2.6054,2.6042,2.6044,2.6055,2.6056,2.6056,2.6057,0,2.6298,2.6294,2.6255,2.6238,2.6233,2.6207,2.6191,2.6169,2.6162,2.6129,2.6121,2.6109,2.6078,2.607,2.6032,2.6028,2.5979,2.5983,2.5986,2.5986,2.5956,2.5957,2.5865,2.5852,2.5933,2.5933,2.5932,0,2.6263,2.6239,2.6219,2.6203,2.6192,2.6167,2.615,2.6147,2.6129,2.6104,2.6083,2.6053,2.6028,2.5977,2.5964,2.5934,2.5935,2.5905,2.593,2.593,2.5931,2.5931,2.5927,2.5899,2.5898,2.5897,2.5897,0,2.6198,2.6197,2.6174,2.6149,2.613,2.611,2.6091,2.6076,2.607,2.6049,2.6018,2.5999,2.596,2.5929,2.5898,2.5885,2.5888,2.5889,2.588,2.5879,2.588,2.5876,2.597,2.5891,2.5891,2.5892,2.5892,2.5892,2.6152,2.613,2.6112,2.6085,2.6071,2.6052,2.603,2.602,2.5995,2.5964,2.5963,2.5928,2.5906,2.5866,2.5851,2.5821,2.583,2.5818,2.5814,2.5811,2.5807,2.5887,2.5816,2.5816,2.5816,2.5817,2.5817,0,2.6086,2.6074,2.605,2.6023,2.6001,2.6009,2.5987,2.5968,2.5937,2.5918,2.5893,2.5855,2.5824,2.5808,2.5776,2.5755,2.5756,2.5747,2.5747,2.5743,2.5802,2.5812,2.5747,2.5747,2.5747,2.5747,2.5747,2.5747,2.6049,2.6011,2.6007,2.5961,2.595,2.5917,2.5903,2.5885,2.5869,2.5827,2.5802,2.5792,2.5772,2.5739,2.5709,2.5705,2.5692,2.5681,2.5677,2.5732,2.5739,2.5746,2.5755,2.5679,2.5679,2.562,2.562,2.5619]}]]